Find Local Weather

World > North America > United States > California

Pioneertown, California Regional Weather

Lat: 34.16N, Lon: 116.5W
Wx Zone: CAZ060
Feedback
Expires:201809222100;;050243
ASUS46 KLOX 222013
RWRCA 

SOUTHERN CALIFORNIA WEATHER ROUNDUP
NATIONAL WEATHER SERVICE OXNARD CALIFORNIA
100 PM PDT SAT SEP 22 2018

NOTE: "FAIR" INDICATES FEW OR NO CLOUDS BELOW 12,000 FEET WITH NO 
SIGNIFICANT WEATHER AND/OR OBSTRUCTIONS TO VISIBILITY.

  -  STATIONS PRECEEDED BY AN ASTERISK (*) ARE NOT NWS OR FAA 
     STATIONS AND ARE NOT SUBJECT TO NWS AND FAA QUALITY CONTROL.


CAZ028-029-059-060-099-222100-
ANTELOPE VALLEY AND SURROUNDING AREAS

  
CITY           SKY/WX    TMP DP  RH WIND       PRES   REMARKS
LANCASTER      SUNNY     93  42  17 NE7       30.00F                  
PALMDALE       SUNNY     92  43  18 VRB5      30.01F                  
*POPPY PARK      N/A     93  47  20 SW9G21      N/A                   

CITY           SKY/WX    TMP DP  RH WIND       PRES   REMARKS
29 PALMS         N/A     95  43  16 MISG      30.03F HX  91           
BARSTOW/DAGGET MOSUNNY   94  43  17 VRB3      29.97F HX  90           
BISHOP         SUNNY     85  21   9 S8        30.06F                  
CHINA LAKE     SUNNY     96  33  11 SW13      29.97F HX  91           
MOJAVE         SUNNY     90  45  20 SW13      30.03F                  
NEEDLES        SUNNY    104  47  14 SE7       29.89F HX 100           
VICTORVILLE    SUNNY    N/A N/A N/A CALM      30.03F                  

$$


SKY/WX - Weather  TMP - Temperature  DP - Dew Point  RH - Relative Humidity
WIND - Wind Direction/Speed PRES - Barometric Pressure